Regional Weather Roundup
Issued by NWS Cleveland, OH

Home | Current Version | Previous Version | Text Only | Print | Product List | Glossary On
Versions: 1 2 3 4 5 6 7 8 9 10 11 12 13 14 15 16 17 18 19 20 21 22 23 24 25 26 27 28 29 30 31 32 33 34 35 36 37 38 39 40 41 42 43 44 45 46 47 48 49 50
000
ASUS41 KCLE 271412
RWRCLE
OHIO REGIONAL WEATHER ROUNDUP
NATIONAL WEATHER SERVICE WILMINGTON, OH
1000 AM EDT MON JUN 27 2016

NOTE: "FAIR" INDICATES FEW OR NO CLOUDS BELOW 12,000 FEET WITH NO
SIGNIFICANT WEATHER AND/OR OBSTRUCTIONS TO VISIBILITY.

OHZ001>008-015>018-024>027-034-035-043-044-271500-
   NORTHWEST OHIO

CITY           SKY/WX    TMP DP  RH WIND       PRES   REMARKS
DEFIANCE       FAIR      79  68  69 VRB7      30.05S
FINDLAY        FAIR      78  67  68 VRB5      30.04F
TOLEDO EXPRESS FAIR      77  69  76 SW6       30.03S
TOLEDO EXEC    FAIR      78  66  66 W10       30.03F
LIMA           FAIR      77  69  76 NW8       30.07S
$$

OHZ009>014-019>023-028>033-038-089-271500-
   NORTHEAST OHIO

CITY           SKY/WX    TMP DP  RH WIND       PRES   REMARKS
CLE-HOPKINS    PTSUNNY   80  66  62 W7        30.05R
CLE-LAKEFRONT  FAIR      79  68  69 W7        30.02R
CUY CO. ARPT   NOT AVBL
LORAIN-ELYRIA  FAIR      76  68  76 W8        30.04S
ASHTABULA      FAIR      77  68  73 W12       30.03R
AKRON-CANTON   PTSUNNY   78  66  66 W6        30.05F
WOOSTER        FAIR      77  67  71 W5        30.06F
MANSFIELD      FAIR      77  68  73 W7        30.07S
YOUNGSTOWN     CLOUDY    78  69  73 W5        30.04R
$$

OHZ042-051>053-060>062-070>072-077>081-271500-
  SOUTHWEST OHIO

CITY           SKY/WX    TMP DP  RH WIND       PRES   REMARKS
CINC-COVINGTON PTSUNNY   80  69  69 NW6       30.07S
CINC-LUNKEN    FAIR      82  72  71 NE7       30.06S
HAMILTON       FAIR      81  71  71 N6        30.07S
DAYTON         PTSUNNY   80  72  76 N7        30.08F
WRIGHT-PAT AFB FAIR      79  75  86 N7        30.06F
DAYTON GENERAL FAIR      81  69  67 NW7       30.07R
WILMINGTON     CLOUDY    79  70  74 N12       30.07S
$$

OHZ036-037-039>041-045>050-054>059-063>069-073>076-082>088-271500-
  CENTRAL AND SOUTHEAST OHIO

CITY           SKY/WX    TMP DP  RH WIND       PRES   REMARKS
COLUMBUS       PTSUNNY   76  70  82 CALM      30.06S
OSU AIRPORT    FAIR      79  69  71 N3        30.06F
BOLTON FIELD   NOT AVBL
RICKENBACK AFB FAIR      76  68  77 E3        30.06S
NEWARK         FAIR      76  65  68 CALM      30.06F
MARION         FAIR      76  68  76 NW6       30.06F
LANCASTER      FAIR      75  71  87 E3        30.07F
ZANESVILLE     FAIR      77  66  68 CALM      30.06F
NEW PHILLY     FAIR      79  70  74 CALM      30.05F
$$



USA.gov is the U.S. government's official web portal to all federal, state and local government web resources and services.